Location: New York
(40.7127°N, 74.0060°W)
Time: 23:23:53
(UTC-04:00)

STRAND 1 - Visible Passes

Search period start: 15 April 2024 00:00
Search period end: 25 April 2024 00:00
Orbit: 764 x 779 km, 98.4° (Epoch: 15 April)

Date Brightness Start Highest point End Pass type
(mag) Time Alt. Az. Time Alt. Az. Time Alt. Az.
15 Apr ? 20:13:51 10° N 20:18:26 35° WNW 20:23:02 10° SW visible
17 Apr ? 05:16:44 10° ESE 05:20:08 18° ENE 05:23:33 10° NNE visible
17 Apr ? 20:44:02 10° NNW 20:47:37 20° WNW 20:51:11 10° WSW visible
18 Apr ? 20:08:21 10° N 20:13:05 39° WNW 20:17:47 10° SW visible
19 Apr ? 21:15:37 10° NW 21:16:38 11° WNW 21:17:40 10° WNW visible
20 Apr ? 05:11:41 10° E 05:14:48 17° ENE 05:17:54 10° NNE visible
20 Apr ? 20:38:26 10° NNW 20:42:16 22° WNW 20:46:05 10° WSW visible
22 Apr ? 21:09:27 10° NW 21:11:18 12° WNW 21:13:10 10° W visible
23 Apr ? 05:06:41 10° E 05:09:26 15° ENE 05:12:12 10° NNE visible
23 Apr ? 20:32:51 10° NNW 20:36:54 24° WNW 20:40:56 10° WSW visible
